This is the latest recevied weather packets stored in our database for station/object SM6LNJ-13. If no packets are shown the sender has not sent any weather packets the latest 10 day(s).
| Time | Temp. | Humidity | Pressure | Rain* | Wind** | Luminosity | Snow |
|---|---|---|---|---|---|---|---|
| 1777666905 | 11.11° C | 73% | 1421.2 hPa | 0 mm | - | - | - |
| 1777659586 | 13.89° C | 54% | 1428.1 hPa | 0 mm | - | - | - |
| 1777659106 | 15° C | 51% | 1431.4 hPa | 0 mm | - | - | - |
| 1777658903 | 15.56° C | 51% | 1432.4 hPa | 0 mm | - | - | - |
| 1777658866 | 15.56° C | 51% | 1432.4 hPa | 0 mm | - | - | - |
| 1777658506 | 15.56° C | 52% | 1432.9 hPa | 0 mm | - | - | - |
| 1777658386 | 15.56° C | 52% | 1433 hPa | 0 mm | - | - | - |
| 1777658266 | 16.11° C | 52% | 1433.4 hPa | 0 mm | - | - | - |
| 1777658026 | 16.11° C | 52% | 1433.6 hPa | 0 mm | - | - | - |
| 1777657786 | 16.11° C | 52% | 1434 hPa | 0 mm | - | - | - |
| 1777657426 | 16.67° C | 52% | 1435.1 hPa | 0 mm | - | - | - |
| 1777654312 | 17.78° C | 49% | 1437.3 hPa | 0 mm | - | - | - |
| 1777653832 | 18.33° C | 49% | 1439.3 hPa | 0 mm | - | - | - |
| 1777653712 | 18.33° C | 49% | 1439.3 hPa | 0 mm | - | - | - |
| 1777652033 | 18.33° C | 48% | 1438.6 hPa | 0 mm | - | - | - |
| 1777651546 | 18.33° C | 49% | 1438.5 hPa | 0 mm | - | - | - |
| 1777651073 | 18.33° C | 48% | 1438.8 hPa | 0 mm | - | - | - |
| 1777650472 | 17.78° C | 49% | 1437.5 hPa | 0 mm | - | - | - |
| 1777650353 | 17.78° C | 50% | 1436.9 hPa | 0 mm | - | - | - |
| 1777650233 | 17.22° C | 51% | 1436.2 hPa | 0 mm | - | - | - |
| 1777650113 | 16.67° C | 52% | 1435.4 hPa | 0 mm | - | - | - |
| 1777649993 | 16.67° C | 51% | 1434.7 hPa | 0 mm | - | - | - |
| 1777649273 | 16.11° C | 51% | 1434 hPa | 0 mm | - | - | - |
| 1777649153 | 16.67° C | 52% | 1434.6 hPa | 0 mm | - | - | - |
| 1777648672 | 16.67° C | 50% | 1435.4 hPa | 0 mm | - | - | - |
* Rain latest hour (hover to see other rain measurements)
** Current wind speed in m/s (hover to see current wind gust speed)